Terminal Aerodrome Forecast
Issued by NWS Wilmington, NC

Home | Current Version | Previous Version | Text Only | Print | Product List | Glossary On
Versions: 1 2 3 4 5 6 7 8 9 10 11 12 13 14 15 16 17 18 19 20 21
000
FTUS42 KILM 010100 AAA
TAFILM
TAF AMD
KILM 010117Z 0101/0124 02011KT P6SM BKN028 BKN050
     FM010300 02008KT 6SM BR VCSH BKN020 BKN080
      TEMPO 0111/0115 4SM -RA BR BKN008
     FM011700 14007KT P6SM -RA SCT010 BKN025
     FM012300 36006KT 6SM -RA BKN009=

USA.gov is the U.S. government's official web portal to all federal, state and local government web resources and services.